Year,Month,Day,Hour,Minute,Value (Times are PST for temperature in C)
2009,07,02,00,00,15.30
2009,07,02,00,01,15.30
2009,07,02,00,02,15.20
2009,07,02,00,03,15.20
2009,07,02,00,04,15.20
2009,07,02,00,05,15.20
2009,07,02,00,06,15.20
2009,07,02,00,07,15.20
2009,07,02,00,08,15.20
2009,07,02,00,09,15.20
2009,07,02,00,10,15.30
2009,07,02,00,11,15.30
2009,07,02,00,12,15.30
2009,07,02,00,13,15.30
2009,07,02,00,14,15.40
2009,07,02,00,15,15.40
2009,07,02,00,16,15.50
2009,07,02,00,17,15.50
2009,07,02,00,18,15.50
2009,07,02,00,19,15.50
2009,07,02,00,20,15.60
2009,07,02,00,21,15.60
2009,07,02,00,22,15.60
2009,07,02,00,23,15.60
2009,07,02,00,24,15.60
2009,07,02,00,25,15.70
2009,07,02,00,26,15.70
2009,07,02,00,27,15.70
2009,07,02,00,28,15.70
2009,07,02,00,29,15.70
2009,07,02,00,30,15.80
2009,07,02,00,31,15.80
2009,07,02,00,32,15.80
2009,07,02,00,33,15.80
2009,07,02,00,34,15.80
2009,07,02,00,35,15.80
2009,07,02,00,36,15.80
2009,07,02,00,37,15.80
2009,07,02,00,38,15.80
2009,07,02,00,39,15.80
2009,07,02,00,40,15.80
2009,07,02,00,41,15.80
2009,07,02,00,42,15.70
2009,07,02,00,43,15.70
2009,07,02,00,44,15.70
2009,07,02,00,45,15.70
2009,07,02,00,46,15.70
2009,07,02,00,47,15.70
2009,07,02,00,48,15.70
2009,07,02,00,49,15.70
2009,07,02,00,50,15.70
2009,07,02,00,51,15.70
2009,07,02,00,52,15.70
2009,07,02,00,53,15.70
2009,07,02,00,54,15.70
2009,07,02,00,55,15.70
2009,07,02,00,56,15.80
2009,07,02,00,57,15.80
2009,07,02,00,58,15.80
2009,07,02,00,59,15.80
2009,07,02,01,00,15.80
2009,07,02,01,01,15.80
2009,07,02,01,02,15.80
2009,07,02,01,03,15.80
2009,07,02,01,04,15.90
2009,07,02,01,05,16.00
2009,07,02,01,06,16.10
2009,07,02,01,07,16.10
2009,07,02,01,08,16.10
2009,07,02,01,09,16.20
2009,07,02,01,10,16.20
2009,07,02,01,11,16.30
2009,07,02,01,12,16.30
2009,07,02,01,13,16.30
2009,07,02,01,14,16.30
2009,07,02,01,15,16.30
2009,07,02,01,16,16.30
2009,07,02,01,17,16.30
2009,07,02,01,18,16.30
2009,07,02,01,19,16.30
2009,07,02,01,20,16.30
2009,07,02,01,21,16.30
2009,07,02,01,22,16.20
2009,07,02,01,23,16.20
2009,07,02,01,24,16.10
2009,07,02,01,25,16.00
2009,07,02,01,26,15.90
2009,07,02,01,27,15.90
2009,07,02,01,28,15.80
2009,07,02,01,29,15.80
2009,07,02,01,30,15.80
2009,07,02,01,31,15.80
2009,07,02,01,32,15.80
2009,07,02,01,33,15.80
2009,07,02,01,34,15.80
2009,07,02,01,35,15.80
2009,07,02,01,36,15.80
2009,07,02,01,37,15.80
2009,07,02,01,38,15.80
2009,07,02,01,39,15.80
2009,07,02,01,40,15.80
2009,07,02,01,41,15.80
2009,07,02,01,42,15.80
2009,07,02,01,43,15.80
2009,07,02,01,44,15.70
2009,07,02,01,45,15.70
2009,07,02,01,46,15.70
2009,07,02,01,47,15.70
2009,07,02,01,48,15.70
2009,07,02,01,49,15.70
2009,07,02,01,50,15.70
2009,07,02,01,51,15.70
2009,07,02,01,52,15.70
2009,07,02,01,53,15.70
2009,07,02,01,54,15.70
2009,07,02,01,55,15.70
2009,07,02,01,56,15.70
2009,07,02,01,57,15.80
2009,07,02,01,58,15.80
2009,07,02,01,59,15.80
2009,07,02,02,00,15.80
2009,07,02,02,01,15.80
2009,07,02,02,02,15.80
2009,07,02,02,03,15.80
2009,07,02,02,04,15.80
2009,07,02,02,05,15.70
2009,07,02,02,06,15.70
2009,07,02,02,07,15.70
2009,07,02,02,08,15.70
2009,07,02,02,09,15.60
2009,07,02,02,10,15.60
2009,07,02,02,11,15.60
2009,07,02,02,12,15.50
2009,07,02,02,13,15.50
2009,07,02,02,14,15.50
2009,07,02,02,15,15.40
2009,07,02,02,16,15.40
2009,07,02,02,17,15.30
2009,07,02,02,18,15.30
2009,07,02,02,19,15.30
2009,07,02,02,20,15.30
2009,07,02,02,21,15.20
2009,07,02,02,22,15.20
2009,07,02,02,23,15.10
2009,07,02,02,24,15.10
2009,07,02,02,25,15.10
2009,07,02,02,26,15.00
2009,07,02,02,27,15.00
2009,07,02,02,28,14.90
2009,07,02,02,29,14.90
2009,07,02,02,30,14.80
2009,07,02,02,31,14.80
2009,07,02,02,32,14.80
2009,07,02,02,33,14.70
2009,07,02,02,34,14.70
2009,07,02,02,35,14.60
2009,07,02,02,36,14.60
2009,07,02,02,37,14.50
2009,07,02,02,38,14.50
2009,07,02,02,39,14.50
2009,07,02,02,40,14.50
2009,07,02,02,41,14.50
2009,07,02,02,42,14.50
2009,07,02,02,43,14.50
2009,07,02,02,44,14.50
2009,07,02,02,45,14.50
2009,07,02,02,46,14.40
2009,07,02,02,47,14.40
2009,07,02,02,48,14.30
2009,07,02,02,49,14.20
2009,07,02,02,50,14.20
2009,07,02,02,51,14.10
2009,07,02,02,52,14.10
2009,07,02,02,53,14.00
2009,07,02,02,54,14.00
2009,07,02,02,55,14.00
2009,07,02,02,56,14.00
2009,07,02,02,57,14.00
2009,07,02,02,58,14.00
2009,07,02,02,59,14.00
2009,07,02,03,00,14.00
2009,07,02,03,01,13.90
2009,07,02,03,02,13.90
2009,07,02,03,03,13.90
2009,07,02,03,04,13.80
2009,07,02,03,05,13.80
2009,07,02,03,06,13.80
2009,07,02,03,07,13.70
2009,07,02,03,08,13.70
2009,07,02,03,09,13.60
2009,07,02,03,10,13.60
2009,07,02,03,11,13.50
2009,07,02,03,12,13.50
2009,07,02,03,13,13.40
2009,07,02,03,14,13.30
2009,07,02,03,15,13.30
2009,07,02,03,16,13.20
2009,07,02,03,17,13.20
2009,07,02,03,18,13.10
2009,07,02,03,19,13.10
2009,07,02,03,20,13.00
2009,07,02,03,21,12.90
2009,07,02,03,22,12.90
2009,07,02,03,23,12.80
2009,07,02,03,24,12.80
2009,07,02,03,25,12.70
2009,07,02,03,26,12.60
2009,07,02,03,27,12.60
2009,07,02,03,28,12.50
2009,07,02,03,29,12.40
2009,07,02,03,30,12.40
2009,07,02,03,31,12.30
2009,07,02,03,32,12.30
2009,07,02,03,33,12.30
2009,07,02,03,34,12.30
2009,07,02,03,35,12.30
2009,07,02,03,36,12.30
2009,07,02,03,37,12.30
2009,07,02,03,38,12.30
2009,07,02,03,39,12.30
2009,07,02,03,40,12.40
2009,07,02,03,41,12.50
2009,07,02,03,42,12.50
2009,07,02,03,43,12.60
2009,07,02,03,44,12.60
2009,07,02,03,45,12.70
2009,07,02,03,46,12.70
2009,07,02,03,47,12.80
2009,07,02,03,48,12.80
2009,07,02,03,49,12.90
2009,07,02,03,50,13.00
2009,07,02,03,51,13.00
2009,07,02,03,52,13.10
2009,07,02,03,53,13.10
2009,07,02,03,54,13.20
2009,07,02,03,55,13.20
2009,07,02,03,56,13.20
2009,07,02,03,57,13.20
2009,07,02,03,58,13.20
2009,07,02,03,59,13.20
2009,07,02,04,00,13.20
2009,07,02,04,01,13.20
2009,07,02,04,02,13.20
2009,07,02,04,03,13.10
2009,07,02,04,04,13.10
2009,07,02,04,05,13.00
2009,07,02,04,06,12.90
2009,07,02,04,07,12.80
2009,07,02,04,08,12.80
2009,07,02,04,09,12.70
2009,07,02,04,10,12.60
2009,07,02,04,11,12.60
2009,07,02,04,12,12.80
2009,07,02,04,13,12.80
2009,07,02,04,14,12.80
2009,07,02,04,15,12.90
2009,07,02,04,16,12.90
2009,07,02,04,17,12.90
2009,07,02,04,18,13.00
2009,07,02,04,19,13.10
2009,07,02,04,20,13.10
2009,07,02,04,21,13.20
2009,07,02,04,22,13.20
2009,07,02,04,23,13.20
2009,07,02,04,24,13.20
2009,07,02,04,25,13.10
2009,07,02,04,26,13.10
2009,07,02,04,27,13.10
2009,07,02,04,28,13.10
2009,07,02,04,29,13.00
2009,07,02,04,30,12.90
2009,07,02,04,31,12.90
2009,07,02,04,32,12.80
2009,07,02,04,33,12.70
2009,07,02,04,34,12.70
2009,07,02,04,35,12.60
2009,07,02,04,36,12.60
2009,07,02,04,37,12.50
2009,07,02,04,38,12.50
2009,07,02,04,39,12.40
2009,07,02,04,40,12.30
2009,07,02,04,41,12.30
2009,07,02,04,42,12.20
2009,07,02,04,43,12.10
2009,07,02,04,44,12.10
2009,07,02,04,45,12.00
2009,07,02,04,46,11.90
2009,07,02,04,47,11.90
2009,07,02,04,48,11.80
2009,07,02,04,49,11.80
2009,07,02,04,50,11.70
2009,07,02,04,51,11.70
2009,07,02,04,52,11.70
2009,07,02,04,53,11.70
2009,07,02,04,54,11.70
2009,07,02,04,55,11.60
2009,07,02,04,56,11.70
2009,07,02,04,57,11.70
2009,07,02,04,58,11.70
2009,07,02,04,59,11.70
2009,07,02,05,00,11.70
2009,07,02,05,01,11.80
2009,07,02,05,02,11.80
2009,07,02,05,03,11.80
2009,07,02,05,04,11.80
2009,07,02,05,05,11.80
2009,07,02,05,06,11.80
2009,07,02,05,07,11.80
2009,07,02,05,08,11.80
2009,07,02,05,09,11.90
2009,07,02,05,10,11.90
2009,07,02,05,11,12.00
2009,07,02,05,12,12.00
2009,07,02,05,13,12.00
2009,07,02,05,14,12.00
2009,07,02,05,15,12.00
2009,07,02,05,16,12.00
2009,07,02,05,17,12.00
2009,07,02,05,18,12.00
2009,07,02,05,19,12.00
2009,07,02,05,20,12.00
2009,07,02,05,21,12.00
2009,07,02,05,22,12.10
2009,07,02,05,23,12.10
2009,07,02,05,24,12.10
2009,07,02,05,25,12.10
2009,07,02,05,26,12.10
2009,07,02,05,27,12.00
2009,07,02,05,28,12.00
2009,07,02,05,29,11.90
2009,07,02,05,30,11.90
2009,07,02,05,31,11.80
2009,07,02,05,32,11.80
2009,07,02,05,33,11.70
2009,07,02,05,34,11.60
2009,07,02,05,35,11.60
2009,07,02,05,36,11.50
2009,07,02,05,37,11.40
2009,07,02,05,38,11.40
2009,07,02,05,39,11.40
2009,07,02,05,40,11.30
2009,07,02,05,41,11.30
2009,07,02,05,42,11.30
2009,07,02,05,43,11.20
2009,07,02,05,44,11.20
2009,07,02,05,45,11.20
2009,07,02,05,46,11.20
2009,07,02,05,47,11.30
2009,07,02,05,48,11.30
2009,07,02,05,49,11.30
2009,07,02,05,50,11.30
2009,07,02,05,51,11.30
2009,07,02,05,52,11.40
2009,07,02,05,53,11.40
2009,07,02,05,54,11.50
2009,07,02,05,55,11.60
2009,07,02,05,56,11.90
2009,07,02,05,57,12.20
2009,07,02,05,58,12.40
2009,07,02,05,59,12.60
2009,07,02,06,00,12.80
2009,07,02,06,01,12.80
2009,07,02,06,02,12.90
2009,07,02,06,03,13.00
2009,07,02,06,04,13.00
2009,07,02,06,05,13.10
2009,07,02,06,06,13.10
2009,07,02,06,07,13.10
2009,07,02,06,08,13.20
2009,07,02,06,09,13.20
2009,07,02,06,10,13.20
2009,07,02,06,11,13.20
2009,07,02,06,12,13.20
2009,07,02,06,13,13.20
2009,07,02,06,14,13.20
2009,07,02,06,15,13.20
2009,07,02,06,16,13.20
2009,07,02,06,17,13.20
2009,07,02,06,18,13.20
2009,07,02,06,19,13.20
2009,07,02,06,20,13.20
2009,07,02,06,21,13.20
2009,07,02,06,22,13.20
2009,07,02,06,23,13.30
2009,07,02,06,24,13.30
2009,07,02,06,25,13.30
2009,07,02,06,26,13.30
2009,07,02,06,27,13.30
2009,07,02,06,28,13.30
2009,07,02,06,29,13.30
2009,07,02,06,30,13.40
2009,07,02,06,31,13.40
2009,07,02,06,32,13.50
2009,07,02,06,33,13.50
2009,07,02,06,34,13.60
2009,07,02,06,35,13.60
2009,07,02,06,36,13.70
2009,07,02,06,37,13.70
2009,07,02,06,38,13.80
2009,07,02,06,39,13.90
2009,07,02,06,40,13.90
2009,07,02,06,41,13.90
2009,07,02,06,42,14.00
2009,07,02,06,43,14.00
2009,07,02,06,44,14.10
2009,07,02,06,45,14.10
2009,07,02,06,46,14.10
2009,07,02,06,47,14.20
2009,07,02,06,48,14.20
2009,07,02,06,49,14.20
2009,07,02,06,50,14.20
2009,07,02,06,51,14.20
2009,07,02,06,52,14.30
2009,07,02,06,53,14.30
2009,07,02,06,54,14.30
2009,07,02,06,55,14.30
2009,07,02,06,56,14.30
2009,07,02,06,57,14.40
2009,07,02,06,58,14.40
2009,07,02,06,59,14.40
2009,07,02,07,00,14.40
2009,07,02,07,01,14.50
2009,07,02,07,02,14.50
2009,07,02,07,03,14.50
2009,07,02,07,04,14.50
2009,07,02,07,05,14.60
2009,07,02,07,06,14.60
2009,07,02,07,07,14.60
2009,07,02,07,08,14.60
2009,07,02,07,09,14.60
2009,07,02,07,10,14.60
2009,07,02,07,11,14.60
2009,07,02,07,12,14.60
2009,07,02,07,13,14.60
2009,07,02,07,14,14.70
2009,07,02,07,15,14.60
2009,07,02,07,16,14.60
2009,07,02,07,17,14.60
2009,07,02,07,18,14.50
2009,07,02,07,19,14.50
2009,07,02,07,20,14.50
2009,07,02,07,21,14.50
2009,07,02,07,22,14.50
2009,07,02,07,23,14.60
2009,07,02,07,24,14.60
2009,07,02,07,25,14.60
2009,07,02,07,26,14.60
2009,07,02,07,27,14.60
2009,07,02,07,28,14.60
2009,07,02,07,29,14.60
2009,07,02,07,30,14.60
2009,07,02,07,31,14.60
2009,07,02,07,32,14.60
2009,07,02,07,33,14.60
2009,07,02,07,34,14.70
2009,07,02,07,35,14.70
2009,07,02,07,36,14.70
2009,07,02,07,37,14.70
2009,07,02,07,38,14.80
2009,07,02,07,39,14.80
2009,07,02,07,40,14.80
2009,07,02,07,41,14.70
2009,07,02,07,42,14.70
2009,07,02,07,43,14.70
2009,07,02,07,44,14.70
2009,07,02,07,45,14.60
2009,07,02,07,46,14.60
2009,07,02,07,47,14.60
2009,07,02,07,48,14.60
2009,07,02,07,49,14.60
2009,07,02,07,50,14.60
2009,07,02,07,51,14.70
2009,07,02,07,52,14.70
2009,07,02,07,53,14.70
2009,07,02,07,54,14.70
2009,07,02,07,55,14.70
2009,07,02,07,56,14.80
2009,07,02,07,57,14.80
2009,07,02,07,58,14.90
2009,07,02,07,59,14.90
2009,07,02,08,00,14.90
2009,07,02,08,01,14.90
2009,07,02,08,02,14.90
2009,07,02,08,03,14.90
2009,07,02,08,04,14.90
2009,07,02,08,05,14.90
2009,07,02,08,06,15.00
2009,07,02,08,07,15.00
2009,07,02,08,08,15.10
2009,07,02,08,09,15.10
2009,07,02,08,10,15.20
2009,07,02,08,11,15.20
2009,07,02,08,12,15.30
2009,07,02,08,13,15.30
2009,07,02,08,14,15.30
2009,07,02,08,15,15.30
2009,07,02,08,16,15.30
2009,07,02,08,17,15.30
2009,07,02,08,18,15.30
2009,07,02,08,19,15.30
2009,07,02,08,20,15.30
2009,07,02,08,21,15.30
2009,07,02,08,22,15.40
2009,07,02,08,23,15.40
2009,07,02,08,24,15.40
2009,07,02,08,25,15.40
2009,07,02,08,26,15.50
2009,07,02,08,27,15.50
2009,07,02,08,28,15.50
2009,07,02,08,29,15.60
2009,07,02,08,30,15.60
2009,07,02,08,31,15.70
2009,07,02,08,32,15.70
2009,07,02,08,33,15.70
2009,07,02,08,34,15.70
2009,07,02,08,35,15.70
2009,07,02,08,36,15.70
2009,07,02,08,37,15.70
2009,07,02,08,38,15.60
2009,07,02,08,39,15.50
2009,07,02,08,40,15.50
2009,07,02,08,41,15.40
2009,07,02,08,42,15.40
2009,07,02,08,43,15.40
2009,07,02,08,44,15.40
2009,07,02,08,45,15.50
2009,07,02,08,46,15.50
2009,07,02,08,47,15.50
2009,07,02,08,48,15.60
2009,07,02,08,49,15.60
2009,07,02,08,50,15.60
2009,07,02,08,51,15.60
2009,07,02,08,52,15.70
2009,07,02,08,53,15.70
2009,07,02,08,54,15.80
2009,07,02,08,55,15.80
2009,07,02,08,56,15.80
2009,07,02,08,57,15.80
2009,07,02,08,58,15.80
2009,07,02,08,59,15.80
2009,07,02,09,00,15.80
2009,07,02,09,01,15.80
2009,07,02,09,02,15.80
2009,07,02,09,03,15.80
2009,07,02,09,04,15.80
2009,07,02,09,05,15.80
2009,07,02,09,06,15.90
2009,07,02,09,07,15.90
2009,07,02,09,08,16.10
2009,07,02,09,09,16.10
2009,07,02,09,10,16.10
2009,07,02,09,11,16.10
2009,07,02,09,12,16.10
2009,07,02,09,13,16.10
2009,07,02,09,14,15.90
2009,07,02,09,15,15.90
2009,07,02,09,16,16.00
2009,07,02,09,17,16.10
2009,07,02,09,18,16.10
2009,07,02,09,19,16.20
2009,07,02,09,20,16.20
2009,07,02,09,21,16.10
2009,07,02,09,22,16.10
2009,07,02,09,23,16.10
2009,07,02,09,24,16.10
2009,07,02,09,25,16.10
2009,07,02,09,26,16.10
2009,07,02,09,27,16.10
2009,07,02,09,28,16.10
2009,07,02,09,29,16.10
2009,07,02,09,30,16.10
2009,07,02,09,31,16.10
2009,07,02,09,32,16.10
2009,07,02,09,33,16.10
2009,07,02,09,34,16.10
2009,07,02,09,35,16.10
2009,07,02,09,36,16.10
2009,07,02,09,37,16.10
2009,07,02,09,38,16.10
2009,07,02,09,39,16.20
2009,07,02,09,40,16.30
2009,07,02,09,41,16.30
2009,07,02,09,42,16.30
2009,07,02,09,43,16.30
2009,07,02,09,44,16.30
2009,07,02,09,45,16.30
2009,07,02,09,46,16.30
2009,07,02,09,47,16.20
2009,07,02,09,48,16.20
2009,07,02,09,49,16.20
2009,07,02,09,50,16.20
2009,07,02,09,51,16.20
2009,07,02,09,52,16.20
2009,07,02,09,53,16.20
2009,07,02,09,54,16.20
2009,07,02,09,55,16.20
2009,07,02,09,56,16.30
2009,07,02,09,57,16.30
2009,07,02,09,58,16.30
2009,07,02,09,59,16.40
2009,07,02,10,00,16.40
2009,07,02,10,01,16.40
2009,07,02,10,02,16.50
2009,07,02,10,03,16.60
2009,07,02,10,04,16.70
2009,07,02,10,05,16.70
2009,07,02,10,06,16.80
2009,07,02,10,07,16.80
2009,07,02,10,08,16.80
2009,07,02,10,09,16.90
2009,07,02,10,10,16.90
2009,07,02,10,11,16.90
2009,07,02,10,12,17.00
2009,07,02,10,13,17.00
2009,07,02,10,14,17.10
2009,07,02,10,15,17.10
2009,07,02,10,16,17.00
2009,07,02,10,17,17.00
2009,07,02,10,18,17.00
2009,07,02,10,19,17.10
2009,07,02,10,20,17.20
2009,07,02,10,21,17.20
2009,07,02,10,22,17.20
2009,07,02,10,23,17.30
2009,07,02,10,24,17.30
2009,07,02,10,25,17.30
2009,07,02,10,26,17.40
2009,07,02,10,27,17.50
2009,07,02,10,28,17.50
2009,07,02,10,29,17.40
2009,07,02,10,30,17.50
2009,07,02,10,31,17.50
2009,07,02,10,32,17.60
2009,07,02,10,33,17.70
2009,07,02,10,34,17.70
2009,07,02,10,35,17.80
2009,07,02,10,36,17.70
2009,07,02,10,37,17.70
2009,07,02,10,38,17.70
2009,07,02,10,39,17.70
2009,07,02,10,40,17.70
2009,07,02,10,41,17.80
2009,07,02,10,42,17.90
2009,07,02,10,43,17.90
2009,07,02,10,44,18.00
2009,07,02,10,45,18.10
2009,07,02,10,46,18.10
2009,07,02,10,47,18.10
2009,07,02,10,48,18.20
2009,07,02,10,49,18.20
2009,07,02,10,50,18.20
2009,07,02,10,51,18.20
2009,07,02,10,52,18.10
2009,07,02,10,53,18.20
2009,07,02,10,54,18.20
2009,07,02,10,55,18.20
2009,07,02,10,56,18.20
2009,07,02,10,57,18.20
2009,07,02,10,58,18.20
2009,07,02,10,59,18.20
2009,07,02,11,00,18.20
2009,07,02,11,01,18.30
2009,07,02,11,02,18.30
2009,07,02,11,03,18.40
2009,07,02,11,04,18.50
2009,07,02,11,05,18.60
2009,07,02,11,06,18.70
2009,07,02,11,07,18.80
2009,07,02,11,08,18.80
2009,07,02,11,09,18.80
2009,07,02,11,10,18.80
2009,07,02,11,11,18.70
2009,07,02,11,12,18.60
2009,07,02,11,13,18.60
2009,07,02,11,14,18.70
2009,07,02,11,15,18.70
2009,07,02,11,16,18.80
2009,07,02,11,17,18.90
2009,07,02,11,18,18.90
2009,07,02,11,19,18.90
2009,07,02,11,20,18.90
2009,07,02,11,21,18.90
2009,07,02,11,22,18.90
2009,07,02,11,23,18.90
2009,07,02,11,24,18.90
2009,07,02,11,25,19.00
2009,07,02,11,26,19.10
2009,07,02,11,27,19.10
2009,07,02,11,28,19.10
2009,07,02,11,29,19.10
2009,07,02,11,30,19.10
2009,07,02,11,31,19.10
2009,07,02,11,32,19.10
2009,07,02,11,33,19.10
2009,07,02,11,34,19.10
2009,07,02,11,35,19.20
2009,07,02,11,36,19.20
2009,07,02,11,37,19.30
2009,07,02,11,38,19.30
2009,07,02,11,39,19.40
2009,07,02,11,40,19.40
2009,07,02,11,41,19.40
2009,07,02,11,42,19.40
2009,07,02,11,43,19.40
2009,07,02,11,44,19.30
2009,07,02,11,45,19.30
2009,07,02,11,46,19.40
2009,07,02,11,47,19.50
2009,07,02,11,48,19.60
2009,07,02,11,49,19.70
2009,07,02,11,50,19.80
2009,07,02,11,51,19.80
2009,07,02,11,52,19.80
2009,07,02,11,53,19.80
2009,07,02,11,54,19.80
2009,07,02,11,55,19.80
2009,07,02,11,56,19.80
2009,07,02,11,57,19.90
2009,07,02,11,58,19.90
2009,07,02,11,59,19.90
2009,07,02,12,00,19.90
2009,07,02,12,01,19.90
2009,07,02,12,02,19.90
2009,07,02,12,03,20.10
2009,07,02,12,04,20.10
2009,07,02,12,05,20.20
2009,07,02,12,06,20.20
2009,07,02,12,07,20.20
2009,07,02,12,08,20.20
2009,07,02,12,09,20.20
2009,07,02,12,10,20.20
2009,07,02,12,11,20.20
2009,07,02,12,12,20.40
2009,07,02,12,13,20.50
2009,07,02,12,14,20.50
2009,07,02,12,15,20.40
2009,07,02,12,16,20.30
2009,07,02,12,17,20.30
2009,07,02,12,18,20.30
2009,07,02,12,19,20.30
2009,07,02,12,20,20.30
2009,07,02,12,21,20.30
2009,07,02,12,22,20.30
2009,07,02,12,23,20.30
2009,07,02,12,24,20.40
2009,07,02,12,25,20.40
2009,07,02,12,26,20.40
2009,07,02,12,27,20.40
2009,07,02,12,28,20.40
2009,07,02,12,29,20.50
2009,07,02,12,30,20.50
2009,07,02,12,31,20.60
2009,07,02,12,32,20.60
2009,07,02,12,33,20.60
2009,07,02,12,34,20.50
2009,07,02,12,35,20.50
2009,07,02,12,36,20.30
2009,07,02,12,37,20.30
2009,07,02,12,38,20.30
2009,07,02,12,39,20.40
2009,07,02,12,40,20.40
2009,07,02,12,41,20.50
2009,07,02,12,42,20.50
2009,07,02,12,43,20.60
2009,07,02,12,44,20.60
2009,07,02,12,45,20.70
2009,07,02,12,46,20.90
2009,07,02,12,47,21.00
2009,07,02,12,48,21.00
2009,07,02,12,49,21.00
2009,07,02,12,50,20.80
2009,07,02,12,51,20.70
2009,07,02,12,52,20.70
2009,07,02,12,53,20.60
2009,07,02,12,54,20.60
2009,07,02,12,55,20.50
2009,07,02,12,56,20.50
2009,07,02,12,57,20.50
2009,07,02,12,58,20.60
2009,07,02,12,59,20.60
2009,07,02,13,00,20.60
2009,07,02,13,01,20.60
2009,07,02,13,02,20.60
2009,07,02,13,03,20.70
2009,07,02,13,04,20.80
2009,07,02,13,05,20.90
2009,07,02,13,06,20.90
2009,07,02,13,07,21.00
2009,07,02,13,08,21.10
2009,07,02,13,09,21.20
2009,07,02,13,10,21.30
2009,07,02,13,11,21.40
2009,07,02,13,12,21.50
2009,07,02,13,13,21.60
2009,07,02,13,14,21.60
2009,07,02,13,15,21.60
2009,07,02,13,16,21.60
2009,07,02,13,17,21.50
2009,07,02,13,18,21.40
2009,07,02,13,19,21.30
2009,07,02,13,20,21.30
2009,07,02,13,21,21.40
2009,07,02,13,22,21.50
2009,07,02,13,23,21.60
2009,07,02,13,24,21.70
2009,07,02,13,25,21.90
2009,07,02,13,26,21.90
2009,07,02,13,27,21.90
2009,07,02,13,28,21.90
2009,07,02,13,29,22.00
2009,07,02,13,30,22.00
2009,07,02,13,31,22.00
2009,07,02,13,32,22.00
2009,07,02,13,33,22.00
2009,07,02,13,34,21.90
2009,07,02,13,35,21.80
2009,07,02,13,36,21.80
2009,07,02,13,37,21.90
2009,07,02,13,38,22.00
2009,07,02,13,39,22.00
2009,07,02,13,40,22.10
2009,07,02,13,41,22.10
2009,07,02,13,42,22.10
2009,07,02,13,43,22.10
2009,07,02,13,44,22.10
2009,07,02,13,45,22.10
2009,07,02,13,46,22.00
2009,07,02,13,47,22.00
2009,07,02,13,48,22.10
2009,07,02,13,49,22.20
2009,07,02,13,50,22.30
2009,07,02,13,51,22.40
2009,07,02,13,52,22.50
2009,07,02,13,53,22.60
2009,07,02,13,54,22.70
2009,07,02,13,55,22.70
2009,07,02,13,56,22.80
2009,07,02,13,57,22.80
2009,07,02,13,58,22.90
2009,07,02,13,59,22.80
2009,07,02,14,00,22.80
2009,07,02,14,01,22.80
2009,07,02,14,02,22.80
2009,07,02,14,03,22.70
2009,07,02,14,04,22.70
2009,07,02,14,05,22.80
2009,07,02,14,06,22.90
2009,07,02,14,07,22.90
2009,07,02,14,08,23.10
2009,07,02,14,09,23.10
2009,07,02,14,10,23.10
2009,07,02,14,11,23.20
2009,07,02,14,12,23.20
2009,07,02,14,13,23.30
2009,07,02,14,14,23.30
2009,07,02,14,15,23.30
2009,07,02,14,16,23.30
2009,07,02,14,17,23.30
2009,07,02,14,18,23.30
2009,07,02,14,19,23.30
2009,07,02,14,20,23.30
2009,07,02,14,21,23.40
2009,07,02,14,22,23.50
2009,07,02,14,23,23.60
2009,07,02,14,24,23.60
2009,07,02,14,25,23.60
2009,07,02,14,26,23.60
2009,07,02,14,27,23.60
2009,07,02,14,28,23.60
2009,07,02,14,29,23.60
2009,07,02,14,30,23.60
2009,07,02,14,31,23.60
2009,07,02,14,32,23.70
2009,07,02,14,33,23.60
2009,07,02,14,34,23.60
2009,07,02,14,35,23.60
2009,07,02,14,36,23.60
2009,07,02,14,37,23.50
2009,07,02,14,38,23.40
2009,07,02,14,39,23.40
2009,07,02,14,40,23.30
2009,07,02,14,41,23.30
2009,07,02,14,42,23.30
2009,07,02,14,43,23.30
2009,07,02,14,44,23.30
2009,07,02,14,45,23.30
2009,07,02,14,46,23.30
2009,07,02,14,47,23.40
2009,07,02,14,48,23.40
2009,07,02,14,49,23.60
2009,07,02,14,50,23.60
2009,07,02,14,51,23.60
2009,07,02,14,52,23.40
2009,07,02,14,53,23.40
2009,07,02,14,54,23.60
2009,07,02,14,55,23.60
2009,07,02,14,56,23.70
2009,07,02,14,57,23.70
2009,07,02,14,58,23.70
2009,07,02,14,59,23.70
2009,07,02,15,00,23.70
2009,07,02,15,01,23.80
2009,07,02,15,02,23.90
2009,07,02,15,03,23.90
2009,07,02,15,04,24.00
2009,07,02,15,05,24.10
2009,07,02,15,06,24.20
2009,07,02,15,07,24.30
2009,07,02,15,08,24.30
2009,07,02,15,09,24.20
2009,07,02,15,10,24.10
2009,07,02,15,11,24.10
2009,07,02,15,12,24.20
2009,07,02,15,13,24.20
2009,07,02,15,14,24.20
2009,07,02,15,15,24.10
2009,07,02,15,16,24.10
2009,07,02,15,17,24.20
2009,07,02,15,18,24.20
2009,07,02,15,19,24.20
2009,07,02,15,20,24.20
2009,07,02,15,21,24.20
2009,07,02,15,22,24.10
2009,07,02,15,23,24.10
2009,07,02,15,24,24.10
2009,07,02,15,25,24.10
2009,07,02,15,26,24.20
2009,07,02,15,27,24.30
2009,07,02,15,28,24.50
2009,07,02,15,29,24.50
2009,07,02,15,30,24.60
2009,07,02,15,31,24.70
2009,07,02,15,32,24.50
2009,07,02,15,33,24.30
2009,07,02,15,34,24.10
2009,07,02,15,35,24.10
2009,07,02,15,36,24.10
2009,07,02,15,37,24.20
2009,07,02,15,38,24.20
2009,07,02,15,39,24.10
2009,07,02,15,40,24.10
2009,07,02,15,41,24.10
2009,07,02,15,42,24.10
2009,07,02,15,43,24.10
2009,07,02,15,44,24.20
2009,07,02,15,45,24.30
2009,07,02,15,46,24.30
2009,07,02,15,47,24.20
2009,07,02,15,48,24.30
2009,07,02,15,49,24.40
2009,07,02,15,50,24.50
2009,07,02,15,51,24.50
2009,07,02,15,52,24.50
2009,07,02,15,53,24.60
2009,07,02,15,54,24.70
2009,07,02,15,55,24.70
2009,07,02,15,56,24.70
2009,07,02,15,57,24.70
2009,07,02,15,58,24.70
2009,07,02,15,59,24.70
2009,07,02,16,00,24.80
2009,07,02,16,01,24.70
2009,07,02,16,02,24.70
2009,07,02,16,03,24.70
2009,07,02,16,04,24.70
2009,07,02,16,05,24.70
2009,07,02,16,06,24.70
2009,07,02,16,07,24.70
2009,07,02,16,08,24.60
2009,07,02,16,09,24.60
2009,07,02,16,10,24.60
2009,07,02,16,11,24.50
2009,07,02,16,12,24.50
2009,07,02,16,13,24.50
2009,07,02,16,14,24.50
2009,07,02,16,15,24.40
2009,07,02,16,16,24.50
2009,07,02,16,17,24.50
2009,07,02,16,18,24.50
2009,07,02,16,19,24.60
2009,07,02,16,20,24.60
2009,07,02,16,21,24.70
2009,07,02,16,22,24.70
2009,07,02,16,23,24.70
2009,07,02,16,24,24.80
2009,07,02,16,25,24.70
2009,07,02,16,26,24.80
2009,07,02,16,27,24.80
2009,07,02,16,28,24.80
2009,07,02,16,29,24.80
2009,07,02,16,30,24.80
2009,07,02,16,31,24.80
2009,07,02,16,32,24.70
2009,07,02,16,33,24.70
2009,07,02,16,34,24.70
2009,07,02,16,35,24.70
2009,07,02,16,36,24.70
2009,07,02,16,37,24.80
2009,07,02,16,38,24.90
2009,07,02,16,39,24.90
2009,07,02,16,40,24.90
2009,07,02,16,41,24.90
2009,07,02,16,42,24.80
2009,07,02,16,43,24.80
2009,07,02,16,44,24.90
2009,07,02,16,45,24.90
2009,07,02,16,46,24.90
2009,07,02,16,47,24.80
2009,07,02,16,48,24.90
2009,07,02,16,49,24.90
2009,07,02,16,50,24.90
2009,07,02,16,51,24.90
2009,07,02,16,52,24.90
2009,07,02,16,53,25.00
2009,07,02,16,54,25.10
2009,07,02,16,55,25.20
2009,07,02,16,56,25.20
2009,07,02,16,57,25.20
2009,07,02,16,58,25.20
2009,07,02,16,59,25.20
2009,07,02,17,00,25.20
2009,07,02,17,01,25.20
2009,07,02,17,02,25.30
2009,07,02,17,03,25.30
2009,07,02,17,04,25.40
2009,07,02,17,05,25.40
2009,07,02,17,06,25.50
2009,07,02,17,07,25.50
2009,07,02,17,08,25.50
2009,07,02,17,09,25.50
2009,07,02,17,10,25.40
2009,07,02,17,11,25.40
2009,07,02,17,12,25.40
2009,07,02,17,13,25.40
2009,07,02,17,14,25.30
2009,07,02,17,15,25.30
2009,07,02,17,16,25.30
2009,07,02,17,17,25.40
2009,07,02,17,18,25.50
2009,07,02,17,19,25.60